EW9174 Weather Reports


Display with metric or nautical units.
time (UTC)temp
F
wind
direction
speed
MPH
gust
MPH
rain 1hr
in
rain 24hr
in
rain mn
in
humidity
%
barometer
mb
20260904160016 75 19 0.0 1.0 0.00 0.00 0.00 41 1004.5
20260904154514 73 19 0.0 1.0 0.00 0.00 0.00 42 1004.5
20260904153017 71 19 0.0 2.0 0.00 0.00 0.00 48 1004.7
20260904151509 68 19 0.0 0.0 0.00 0.00 0.00 56 1004.6
20260904150008 67 19 0.0 1.0 0.00 0.00 0.00 58 1004.7
20260904144508 65 19 0.0 0.0 0.00 0.00 0.00 62 1004.8
20260904143007 64 19 0.0 2.0 0.00 0.00 0.00 62 1004.5
20260904141507 62 19 0.0 1.0 0.00 0.00 0.00 64 1004.4
20260904140003 60 19 0.0 3.0 0.00 0.00 0.00 69 1004.2
20260904134606 59 19 0.0 1.0 0.00 0.00 0.00 71 1003.8
20260904134500 59 19 0.0 1.0 0.00 0.00 0.00 71 1003.8
20260904133059 57 19 0.0 1.0 0.00 0.00 0.00 72 1003.5
20260904131559 57 19 0.0 0.0 0.00 0.00 0.00 72 1003.5
20260904130055 56 19 0.0 1.0 0.00 0.00 0.00 72 1003.3
20260904124552 57 19 0.0 2.0 0.00 0.00 0.00 71 1003.0
20260904123049 57 19 0.0 1.0 0.00 0.00 0.00 69 1002.7
20260904121545 58 19 0.0 0.0 0.00 0.00 0.00 68 1002.6
20260904120048 59 19 0.0 0.0 0.00 0.00 0.00 68 1002.5
20260904114539 60 19 0.0 0.0 0.00 0.00 0.00 66 1002.5
20260904113042 61 19 0.0 0.0 0.00 0.00 0.00 65 1002.5
20260904111532 61 19 0.0 0.0 0.00 0.00 0.00 63 1002.2
20260904110031 62 19 0.0 1.0 0.00 0.00 0.00 61 1001.9
20260904104547 62 19 0.0 2.0 0.00 0.00 0.00 61 1002.0
20260904103027 62 18 0.0 1.0 0.00 0.00 0.00 62 1001.8
20260904094525 63 18 0.0 0.0 0.00 0.00 0.00 60 1001.3
20260904093019 63 18 0.0 0.0 0.00 0.00 0.00 60 1001.2
20260904091515 63 18 0.0 2.0 0.00 0.00 0.00 59 1001.0
20260904090015 64 18 0.0 1.0 0.00 0.00 0.00 57 1001.0
20260904084511 64 18 0.0 2.0 0.00 0.00 0.00 57 1001.0
20260904083014 65 18 0.0 1.0 0.00 0.00 0.00 55 1000.9
20260904081506 66 18 1.0 2.0 0.00 0.00 0.00 53 1000.7
20260904080001 67 18 0.0 2.0 0.00 0.00 0.00 52 1000.8
20260904074603 67 17 0.0 4.0 0.00 0.00 0.00 52 1000.6
20260904073101 68 16 0.0 3.0 0.00 0.00 0.00 51 1000.7
20260904071605 68 14 0.0 3.0 0.00 0.00 0.00 49 1000.7
20260904070050 70 13 0.0 2.0 0.00 0.00 0.00 47 1000.6
20260904064546 71 13 0.0 1.0 0.00 0.00 0.00 46 1000.6
20260904063044 71 13 0.0 2.0 0.00 0.00 0.00 47 1001.0
20260904061541 72 13 0.0 0.0 0.00 0.00 0.00 48 1000.5
20260904060038 73 13 0.0 0.0 0.00 0.00 0.00 46 1000.4
20260904054541 73 13 0.0 1.0 0.00 0.00 0.00 45 1000.4
20260904053040 74 13 0.0 1.0 0.00 0.00 0.00 44 1000.5
20260904051537 75 13 0.0 0.0 0.00 0.00 0.00 42 1000.5
20260904050037 76 13 0.0 0.0 0.00 0.00 0.00 41 1000.7
20260904044535 77 13 0.0 1.0 0.00 0.00 0.00 40 1000.7
20260904043034 77 13 0.0 1.0 0.00 0.00 0.00 40 1000.9
20260904041534 77 13 0.0 0.0 0.00 0.00 0.00 39 1001.1
20260904040037 78 13 0.0 1.0 0.00 0.00 0.00 38 1001.2
20260904034535 79 13 0.0 1.0 0.00 0.00 0.00 37 1001.1
20260904033033 79 13 0.0 1.0 0.00 0.00 0.00 35 1000.9
20260904031531 78 5 0.0 1.0 0.00 0.00 0.00 33 1000.7
20260904030031 79 5 0.0 0.0 0.00 0.00 0.00 34 1000.4
20260904024531 81 5 0.0 1.0 0.00 0.00 0.00 33 1000.2
20260904023030 82 5 0.0 1.0 0.00 0.00 0.00 31 1000.0
20260904021543 82 5 0.0 1.0 0.00 0.00 0.00 31 999.7
20260904020029 84 5 0.0 1.0 0.00 0.00 0.00 30 999.6
20260904014536 86 5 0.0 0.0 0.00 0.00 0.00 26 999.4
20260904013028 89 5 0.0 0.0 0.00 0.00 0.00 25 999.4
20260904011540 93 5 0.0 0.0 0.00 0.00 0.00 23 999.2
20260904010027 95 5 0.0 0.0 0.00 0.00 0.00 22 999.2
20260904004526 97 5 0.0 0.0 0.00 0.00 0.00 21 999.1
20260904003026 98 5 0.0 1.0 0.00 0.00 0.00 19 999.2
20260904001523 98 5 0.0 1.0 0.00 0.00 0.00 20 999.3
20260904000023 99 5 0.0 1.0 0.00 0.00 0.00 19 999.4
20260903234522 99 5 0.0 0.0 0.00 0.00 0.00 19 999.4
20260903233021 100 5 0.0 1.0 0.00 0.00 0.00 17 999.4
20260903231519 99 5 0.0 1.0 0.00 0.00 0.00 19 999.5
20260903230019 100 5 0.0 2.0 0.00 0.00 0.00 18 999.6
20260903224526 100 5 0.0 1.0 0.00 0.00 0.00 17 999.7
20260903223014 99 5 0.0 3.0 0.00 0.00 0.00 20 999.7
20260903221513 99 5 0.0 1.0 0.00 0.00 0.00 17 999.9
20260903220018 98 5 0.0 3.0 0.00 0.00 0.00 21 1000.2
20260903214508 98 9 0.0 2.0 0.00 0.00 0.00 21 1000.4
20260903213004 98 5 0.0 2.0 0.00 0.00 0.00 21 1000.6
20260903211501 97 5 0.0 1.0 0.00 0.00 0.00 22 1000.9
20260903204556 96 360 0.0 2.0 0.00 0.00 0.00 23 1001.4
20260903203053 96 334 0.0 1.0 0.00 0.00 0.00 23 1001.6
20260903201550 95 326 0.0 2.0 0.00 0.00 0.00 21 1001.8
20260903200047 94 305 0.0 2.0 0.00 0.00 0.00 24 1002.0
20260903194549 93 302 0.0 3.0 0.00 0.00 0.00 23 1002.1
20260903193050 93 349 1.0 3.0 0.00 0.00 0.00 22 1002.4
20260903191538 93 349 0.0 3.0 0.00 0.00 0.00 24 1002.7
20260903190036 92 350 0.0 1.0 0.00 0.00 0.00 26 1002.9
20260903184533 92 355 0.0 1.0 0.00 0.00 0.00 24 1003.1
20260903183030 91 355 0.0 1.0 0.00 0.00 0.00 27 1003.4
20260903181526 90 355 0.0 2.0 0.00 0.00 0.00 30 1003.6
20260903180023 89 355 0.0 2.0 0.00 0.00 0.00 26 1003.8
20260903174521 87 355 0.0 1.0 0.00 0.00 0.00 31 1004.1
20260903173024 86 350 0.0 1.0 0.00 0.00 0.00 30 1004.1
20260903171512 85 350 0.0 1.0 0.00 0.00 0.00 31 1004.2
20260903170008 83 350 0.0 2.0 0.00 0.00 0.00 33 1004.3
20260903164504 82 350 0.0 1.0 0.00 0.00 0.00 36 1004.4
20260903163001 81 350 0.0 2.0 0.00 0.00 0.00 38 1004.2
20260903161558 80 351 0.0 0.0 0.00 0.00 0.00 38 1004.3